Location: La Comballaz
(46.3780°N, 7.0817°E)
Time: 02:36:59
(UTC+00:00)

Okean 3 Rocket - Pass Details

Date: 09 April 2020
Orbit: 616 x 644 km, 82.5° (Epoch: 03 June)

Event Time Altitude Azimuth Distance (km) Brightness Sun altitude
Rises 20:48:30 0° 352° (N) 2,915 7.8 -24.4°
Reaches altitude 10° 20:50:45 10° 354° (N) 2,008 6.8 -24.7°
Enters shadow 20:54:37 63° 24° (NNE) 703 3.8 -25.2°
